Location: Mount Lemmon
(32.4432°N, 110.7577°W)
Time: 15:08:48
(UTC-07:00)

OTV 5 (USA 277) - Visible Passes

Search period start: 24 November 2017 00:00
Search period end: 04 December 2017 00:00
Orbit: 404 x 417 km, 43.0° (Epoch: 07 September)

Date Brightness Start Highest point End Pass type
(mag) Time Alt. Az. Time Alt. Az. Time Alt. Az.
28 Nov ? 19:08:47 10° SSW 19:10:16 21° SSW 19:10:16 21° SSW visible
29 Nov ? 18:18:21 10° S 18:20:53 20° SE 18:21:56 17° ESE visible
30 Nov ? 19:03:34 10° WSW 19:06:17 55° WSW 19:06:17 55° WSW visible
01 Dec ? 18:12:34 10° SW 18:15:52 60° SE 18:17:49 22° ENE visible
02 Dec ? 18:59:08 10° W 19:02:02 32° NNW 19:02:02 32° NNW visible
03 Dec ? 18:07:47 10° WSW 18:11:02 47° NNW 18:13:27 16° NE visible
